Time,TemperatureF,DewpointF,PressureIn,WindDirection,WindDirectionDegrees,WindSpeedMPH,WindSpeedGustMPH,Humidity,HourlyPrecipIn,Conditions,Clouds,dailyrainin,SoftwareType,DateUTC
2013-04-23 06:32:00,21.0,21.0,-100.00,SW,230,4.0,-999.0,99,0.00,,,-99.99,,2013-04-23 12:32:00,
2013-04-23 06:42:00,20.0,20.0,-100.00,SSW,205,4.0,9.0,98,0.00,,,-99.99,,2013-04-23 12:42:00,
2013-04-23 06:52:00,20.0,20.0,-100.00,SSW,200,4.0,6.0,98,0.00,,,-99.99,,2013-04-23 12:52:00,
2013-04-23 07:01:00,20.0,20.0,-100.00,SSW,210,3.0,7.0,98,0.00,,,-99.99,,2013-04-23 13:01:00,
2013-04-23 07:11:00,21.0,20.0,-100.00,SSW,205,4.0,7.0,98,0.00,,,-99.99,,2013-04-23 13:11:00,
2013-04-23 07:21:00,21.0,21.0,-100.00,SSW,195,3.0,4.0,98,0.00,,,-99.99,,2013-04-23 13:21:00,
2013-04-23 07:32:00,21.0,21.0,-100.00,SSW,195,4.0,6.0,98,0.00,,,-99.99,,2013-04-23 13:32:00,
2013-04-23 07:41:00,21.0,21.0,-100.00,SW,235,4.0,6.0,98,0.00,,,-99.99,,2013-04-23 13:41:00,
2013-04-23 07:52:00,21.0,21.0,-100.00,SW,235,4.0,6.0,98,0.00,,,-99.99,,2013-04-23 13:52:00,
2013-04-23 08:01:00,20.0,19.0,-100.00,North,-999,-999.0,-999.0,97,0.00,,,-99.99,,2013-04-23 14:01:00,
2013-04-23 08:11:00,20.0,19.0,-100.00,South,180,6.0,9.0,97,0.00,,,-99.99,,2013-04-23 14:11:00,
2013-04-23 08:22:00,20.0,20.0,-100.00,South,175,4.0,8.0,97,0.00,,,-99.99,,2013-04-23 14:22:00,
2013-04-23 08:32:00,20.0,20.0,-100.00,SSE,150,5.0,7.0,96,0.00,,,-99.99,,2013-04-23 14:32:00,
2013-04-23 08:42:00,20.0,19.0,-100.00,SSE,160,6.0,7.0,95,0.00,,,-99.99,,2013-04-23 14:42:00,
2013-04-23 08:52:00,20.0,19.0,-100.00,South,180,4.0,7.0,95,0.00,,,-99.99,,2013-04-23 14:52:00,
2013-04-23 09:01:00,20.0,19.0,-100.00,South,180,4.0,7.0,95,0.00,,,-99.99,,2013-04-23 15:01:00,
2013-04-23 09:12:00,20.0,19.0,-100.00,South,185,6.0,7.0,94,0.00,,,-99.99,,2013-04-23 15:12:00,
2013-04-23 09:21:00,22.0,20.0,-100.00,SW,215,6.0,9.0,93,0.00,,,-99.99,,2013-04-23 15:21:00,
2013-04-23 09:32:00,22.0,20.0,-100.00,SSW,195,6.0,7.0,90,0.00,,,-99.99,,2013-04-23 15:32:00,
2013-04-23 09:42:00,24.0,21.0,-100.00,SSW,210,4.0,7.0,88,0.00,,,-99.99,,2013-04-23 15:42:00,
2013-04-23 09:52:00,25.0,22.0,-100.00,WSW,255,3.0,6.0,86,0.00,,,-99.99,,2013-04-23 15:52:00,
2013-04-23 10:02:00,25.0,20.0,-100.00,SSW,200,2.0,6.0,81,0.00,,,-99.99,,2013-04-23 16:02:00,
2013-04-23 10:12:00,27.0,21.0,-100.00,WNW,295,0.0,4.0,79,0.00,,,-99.99,,2013-04-23 16:12:00,
2013-04-23 10:23:00,27.0,20.0,-100.00,NNW,345,1.0,6.0,75,0.00,,,-99.99,,2013-04-23 16:23:00,
2013-04-23 10:34:00,27.0,20.0,-100.00,WNW,290,2.0,4.0,73,0.00,,,-99.99,,2013-04-23 16:34:00,
2013-04-23 10:42:00,28.0,20.0,-100.00,West,270,2.0,4.0,70,0.00,,,-99.99,,2013-04-23 16:42:00,
2013-04-23 10:52:00,26.0,18.0,-100.00,South,180,2.0,6.0,71,0.00,,,-99.99,,2013-04-23 16:52:00,
2013-04-23 11:02:00,27.0,19.0,-100.00,South,175,2.0,4.0,72,0.00,,,-99.99,,2013-04-23 17:02:00,
2013-04-23 11:11:00,25.0,18.0,-100.00,SW,225,3.0,6.0,74,0.00,,,-99.99,,2013-04-23 17:11:00,
2013-04-23 11:22:00,27.0,20.0,-100.00,SSE,160,2.0,4.0,73,0.00,,,-99.99,,2013-04-23 17:22:00,
2013-04-23 11:32:00,27.0,19.0,-100.00,South,175,2.0,4.0,72,0.00,,,-99.99,,2013-04-23 17:32:00,
2013-04-23 11:42:00,26.0,18.0,-100.00,South,185,4.0,6.0,71,0.00,,,-99.99,,2013-04-23 17:42:00,
2013-04-23 11:53:00,26.0,18.0,-100.00,South,175,5.0,7.0,72,0.00,,,-99.99,,2013-04-23 17:53:00,
2013-04-23 12:02:00,27.0,19.0,-100.00,South,190,4.0,7.0,71,0.00,,,-99.99,,2013-04-23 18:02:00,
2013-04-23 12:12:00,27.0,18.0,-100.00,SSE,165,3.0,8.0,69,0.00,,,-99.99,,2013-04-23 18:12:00,
2013-04-23 12:22:00,28.0,19.0,-100.00,SW,215,1.0,7.0,68,0.00,,,-99.99,,2013-04-23 18:22:00,
2013-04-23 12:32:00,31.0,20.0,-100.00,NNW,335,4.0,6.0,62,0.00,,,-99.99,,2013-04-23 18:32:00,
2013-04-23 12:42:00,31.0,19.0,-100.00,NW,310,2.0,7.0,60,0.00,,,-99.99,,2013-04-23 18:42:00,
2013-04-23 12:52:00,32.0,19.0,-100.00,North,10,4.0,7.0,59,0.00,,,-99.99,,2013-04-23 18:52:00,
2013-04-23 13:02:00,29.0,17.0,-100.00,West,280,6.0,11.0,60,0.00,,,-99.99,,2013-04-23 19:02:00,
2013-04-23 13:11:00,34.0,20.0,-100.00,West,275,4.0,7.0,57,0.00,,,-99.99,,2013-04-23 19:11:00,
2013-04-23 13:21:00,31.0,18.0,-100.00,NW,305,3.0,9.0,57,0.00,,,-99.99,,2013-04-23 19:21:00,
2013-04-23 13:32:00,32.0,18.0,-100.00,West,270,5.0,9.0,56,0.00,,,-99.99,,2013-04-23 19:32:00,
2013-04-23 13:42:00,31.0,17.0,-100.00,NNE,30,4.0,7.0,56,0.00,,,-99.99,,2013-04-23 19:42:00,
2013-04-23 13:52:00,31.0,17.0,-100.00,ENE,65,2.0,7.0,54,0.00,,,-99.99,,2013-04-23 19:52:00,
2013-04-23 14:01:00,35.0,19.0,-100.00,NE,50,0.0,7.0,50,0.00,,,-99.99,,2013-04-23 20:01:00,
2013-04-23 14:11:00,35.0,19.0,-100.00,West,270,4.0,6.0,52,0.00,,,-99.99,,2013-04-23 20:11:00,
2013-04-23 14:21:00,34.0,19.0,-100.00,North,355,5.0,9.0,53,0.00,,,-99.99,,2013-04-23 20:21:00,
2013-04-23 14:31:00,36.0,19.0,-100.00,North,355,4.0,7.0,50,0.00,,,-99.99,,2013-04-23 20:31:00,
2013-04-23 14:42:00,36.0,19.0,-100.00,NNW,345,4.0,7.0,49,0.00,,,-99.99,,2013-04-23 20:42:00,
2013-04-23 14:51:00,31.0,16.0,-100.00,NNW,340,4.0,7.0,53,0.00,,,-99.99,,2013-04-23 20:51:00,
2013-04-23 15:01:00,30.0,17.0,-100.00,North,0,4.0,6.0,56,0.00,,,-99.99,,2013-04-23 21:01:00,
2013-04-23 15:12:00,30.0,16.0,-100.00,North,0,6.0,9.0,56,0.00,,,-99.99,,2013-04-23 21:12:00,
2013-04-23 15:21:00,31.0,17.0,-100.00,North,350,6.0,8.0,55,0.00,,,-99.99,,2013-04-23 21:21:00,
2013-04-23 15:32:00,30.0,16.0,-100.00,NNW,340,6.0,7.0,56,0.00,,,-99.99,,2013-04-23 21:32:00,
2013-04-23 15:43:00,32.0,17.0,-100.00,NNW,335,5.0,9.0,54,0.00,,,-99.99,,2013-04-23 21:43:00,
2013-04-23 15:52:00,31.0,18.0,-100.00,NNE,15,4.0,11.0,55,0.00,,,-99.99,,2013-04-23 21:52:00,
2013-04-23 16:03:00,33.0,19.0,-100.00,North,350,3.0,7.0,55,0.00,,,-99.99,,2013-04-23 22:03:00,
2013-04-23 16:12:00,35.0,19.0,-100.00,NW,310,3.0,6.0,51,0.00,,,-99.99,,2013-04-23 22:12:00,
2013-04-23 16:22:00,35.0,18.0,-100.00,SSE,155,1.0,6.0,48,0.00,,,-99.99,,2013-04-23 22:22:00,
2013-04-23 16:33:00,38.0,19.0,-100.00,NNE,20,2.0,4.0,45,0.00,,,-99.99,,2013-04-23 22:33:00,
2013-04-23 16:42:00,39.0,19.0,-100.00,SW,225,1.0,5.0,43,0.00,,,-99.99,,2013-04-23 22:42:00,
2013-04-23 16:52:00,36.0,15.0,-100.00,NNE,25,2.0,4.0,41,0.00,,,-99.99,,2013-04-23 22:52:00,
2013-04-23 17:02:00,38.0,16.0,-100.00,WSW,250,1.0,4.0,40,0.00,,,-99.99,,2013-04-23 23:02:00,
2013-04-23 17:12:00,40.0,17.0,-100.00,West,270,2.0,6.0,38,0.00,,,-99.99,,2013-04-23 23:12:00,
2013-04-23 17:22:00,39.0,15.0,-100.00,North,10,1.0,2.0,37,0.00,,,-99.99,,2013-04-23 23:22:00,
2013-04-23 17:32:00,38.0,15.0,-100.00,West,280,3.0,4.0,37,0.00,,,-99.99,,2013-04-23 23:32:00,
2013-04-23 17:42:00,39.0,16.0,-100.00,WSW,245,1.0,3.0,38,0.00,,,-99.99,,2013-04-23 23:42:00,
2013-04-23 17:52:00,37.0,14.0,-100.00,North,355,3.0,4.0,38,0.00,,,-99.99,,2013-04-23 23:52:00,
2013-04-23 18:01:00,36.0,15.0,-100.00,NW,305,2.0,5.0,41,0.00,,,-99.99,,2013-04-24 00:01:00,
2013-04-23 18:11:00,37.0,15.0,-100.00,WNW,290,2.0,4.0,40,0.00,,,-99.99,,2013-04-24 00:11:00,
2013-04-23 18:21:00,34.0,14.0,-100.00,WNW,300,4.0,7.0,43,0.00,,,-99.99,,2013-04-24 00:21:00,
2013-04-23 18:32:00,34.0,14.0,-100.00,NNW,345,4.0,6.0,44,0.00,,,-99.99,,2013-04-24 00:32:00,
2013-04-23 18:41:00,34.0,15.0,-100.00,North,350,4.0,6.0,45,0.00,,,-99.99,,2013-04-24 00:41:00,
2013-04-23 18:51:00,33.0,15.0,-100.00,North,350,2.0,6.0,46,0.00,,,-99.99,,2013-04-24 00:51:00,
2013-04-23 19:01:00,34.0,16.0,-100.00,North,10,2.0,4.0,47,0.00,,,-99.99,,2013-04-24 01:01:00,
2013-04-23 19:11:00,33.0,16.0,-100.00,NW,315,3.0,4.0,47,0.00,,,-99.99,,2013-04-24 01:11:00,
2013-04-23 19:21:00,33.0,16.0,-100.00,North,0,4.0,6.0,48,0.00,,,-99.99,,2013-04-24 01:21:00,
2013-04-23 19:32:00,31.0,15.0,-100.00,NE,50,4.0,5.0,49,0.00,,,-99.99,,2013-04-24 01:32:00,
2013-04-23 19:42:00,30.0,15.0,-100.00,NNE,15,3.0,6.0,52,0.00,,,-99.99,,2013-04-24 01:42:00,
2013-04-23 19:52:00,29.0,16.0,-100.00,NE,35,2.0,6.0,55,0.00,,,-99.99,,2013-04-24 01:52:00,
2013-04-23 20:02:00,29.0,16.0,-100.00,NE,35,4.0,4.0,57,0.00,,,-99.99,,2013-04-24 02:02:00,
2013-04-23 20:10:00,28.0,17.0,-100.00,NNE,15,3.0,5.0,60,0.00,,,-99.99,,2013-04-24 02:10:00,
2013-04-23 20:15:00,29.0,17.0,-100.00,NE,55,4.0,4.0,59,0.00,,,-99.99,,2013-04-24 02:15:00,
2013-04-23 20:27:00,28.0,17.0,-100.00,NNE,15,3.0,5.0,60,0.00,,,-99.99,,2013-04-24 02:27:00,
2013-04-23 20:36:00,28.0,17.0,-100.00,NNE,15,3.0,5.0,60,0.00,,,-99.99,,2013-04-24 02:36:00,
2013-04-23 20:46:00,28.0,17.0,-100.00,NNE,15,3.0,5.0,60,0.00,,,-99.99,,2013-04-24 02:46:00,
2013-04-23 20:55:00,28.0,17.0,-100.00,NNE,15,3.0,5.0,60,0.00,,,-99.99,,2013-04-24 02:55:00,